Wind_Speed
3 4 8 12 10 12 5 6 12 16 16 4 11 8 10 10 5 3 10 11 16 20 25 34 39 40 36 38 37 42 41 45 44 37 37 34 37 35 33 29 31 32 32 35
4 6 13 11 8 11 10 10 13 12 8 2 8 9 6 6 7 5 2 5 19 23 19 20 29 34 38 43 38 41 44 44 45 40 39 33 32 35 31 29 28 30 31 38
6 11 12 6 12 12 11 6 6 5 4 4 2 8 7 11 6 5 3 1 7 5 10 19 20 35 37 38 43 44 46 46 44 39 35 31 30 31 32 32 31 33 35 35
5 4 7 9 7 4 2 3 3 9 7 6 5 5 8 6 9 5 4 6 12 12 12 4 19 22 35 42 46 44 44 46 45 42 37 37 34 30 34 32 31 32 32 37
8 7 11 10 8 2 8 3 4 4 6 4 8 3 8 6 8 8 10 10 8 10 9 11 8 10 27 33 36 43 45 41 43 45 41 38 32 30 29 27 29 34 35 32
8 5 4 10 10 4 5 3 7 5 4 3 8 5 4 6 7 8 8 12 15 7 8 3 7 11 24 39 37 36 39 41 40 44 40 41 35 30 28 30 32 36 36 37
7 3 4 8 9 10 10 6 4 5 5 6 2 4 7 6 5 3 7 12 13 15 7 6 3 9 20 12 29 31 37 36 39 42 40 41 38 35 33 33 32 30 31 36
3 8 6 9 4 5 8 5 4 6 4 8 5 2 3 6 6 4 5 10 15 13 12 12 14 9 18 24 7 16 18 19 28 42 40 39 36 35 32 33 31 35 33 36
2 5 5 8 6 3 10 7 5 2 2 3 2 4 4 3 4 8 10 11 12 12 14 9 10 14 9 18 21 16 5 19 22 23 24 33 32 31 29 30 36 34 33 34
0 3 3 5 6 2 2 6 6 4 4 4 5 1 4 6 7 8 12 8 4 4 8 12 8 8 5 12 9 11 21 19 20 26 30 30 29 30 31 31 34 34 37 35
2 3 7 5 4 5 9 6 4 2 3 2 2 5 6 4 3 7 7 8 7 5 5 8 11 15 10 11 21 6 11 23 34 30 30 31 30 31 34 34 38 30 33 37
3 5 1 6 6 10 6 4 3 3 7 3 3 6 1 3 1 3 5 8 7 5 5 4 6 11 9 8 6 6 19 28 33 30 33 34 35 33 34 39 41 42 32 33
3 2 4 9 7 7 3 5 3 2 2 5 2 6 3 4 1 4 4 5 5 5 4 6 9 11 14 14 25 17 24 27 33 29 31 33 36 38 37 34 31 32 32 33
7 3 5 5 6 5 7 13 10 1 1 4 5 4 3 5 6 4 5 6 2 3 1 3 3 6 12 17 15 23 29 33 25 27 17 16 11 21 19 12 15 19 14 21
4 1 1 4 5 5 9 12 13 10 9 4 5 4 4 6 6 7 6 4 5 5 4 4 3 5 3 7 7 14 9 15 4 24 28 27 20 13 11 12 13 15 11 13
3 3 1 3 7 8 10 9 7 5 4 2 3 4 4 6 4 2 5 6 5 0 5 1 4 5 5 7 8 4 1 14 7 19 23 23 21 4 23 4 11 9 5 11
3 3 2 6 7 8 6 3 3 2 2 3 3 5 6 3 4 3 7 6 6 3 2 4 4 2 4 5 4 1 2 6 6 13 13 13 15 16 16 17 10 14 17 16
6 3 4 6 1 6 4 3 1 5 5 4 6 7 7 3 2 4 4 3 6 1 4 4 3 3 8 9 9 8 7 11 12 12 8 6 10 11 11 10 9 4 3 13
11 6 2 3 5 5 2 2 1 1 5 7 5 9 6 1 2 2 2 2 3 3 1 6 14 13 17 16 13 15 17 17 19 21 19 14 5 4 9 2 8 7 5 4
7 5 5 3 3 6 5 3 3 4 3 1 1 6 6 6 4 4 4 6 2 5 7 10 14 21 21 19 19 20 17 16 20 23 18 18 18 17 9 4 4 8 7 13
3 3 3 3 2 7 3 5 2 2 5 3 2 5 4 3 5 3 5 6 6 6 11 12 14 17 16 15 16 18 18 17 16 19 16 16 15 14 15 12 10 5 3 6
1 0 2 2 4 6 4 2 3 6 2 6 6 5 6 6 9 4 5 6 6 4 11 16 15 16 14 13 14 14 15 11 14 12 13 14 12 14 13 12 10 13 6 4
2 6 3 7 5 6 6 7 5 6 6 5 5 9 9 7 7 4 1 3 4 6 4 13 17 15 11 8 10 9 7 6 9 8 8 11 11 14 15 17 16 18 17 13
4 4 4 3 3 6 7 4 4 6 6 6 4 2 2 3 6 3 2 1 3 6 6 9 15 14 7 7 8 8 9 9 10 8 6 8 9 11 10 11 13 16 16 15
6 1 2 4 6 5 3 3 4 4 5 2 2 2 2 5 5 4 4 3 3 7 9 9 12 11 7 5 5 5 5 7 8 9 11 12 12 12 8 9 8 9 11 11
3 6 4 6 7 4 5 2 7 7 4 8 3 1 3 4 6 5 4 5 7 8 9 10 9 9 5 4 2 4 4 4 7 9 10 11 13 10 9 6 8 5 2 4
Wind_Direction
293 108 241 239 211 231 223 248 265 273 278 267 278 281 283 296 344 134 172 183 215 216 212 205 198 194 193 196 187 184 186 190 188 189 190 192 191 199 206 214 216 219 219 209
353 258 247 244 230 234 243 260 271 282 258 73 308 297 304 330 309 292 304 188 210 215 227 219 196 193 192 194 191 185 188 188 190 191 193 194 192 199 204 209 212 217 219 212
196 246 270 256 262 249 256 229 246 265 310 315 30 328 330 311 312 39 35 118 156 190 235 214 199 190 195 193 195 191 189 188 190 190 189 192 193 206 209 208 212 215 215 215
246 261 319 311 308 197 323 245 341 321 20 309 90 287 308 286 295 336 320 344 45 48 23 256 195 201 192 199 199 195 192 188 187 188 186 190 191 202 210 213 215 217 217 222
254 302 306 303 256 317 249 243 294 298 322 21 316 72 270 18 335 325 329 359 94 74 41 45 51 313 224 218 204 203 192 190 187 188 190 190 196 206 206 210 217 223 224 227
254 281 290 263 289 263 258 5 19 37 75 10 268 132 325 350 297 333 354 356 358 33 74 327 206 285 225 217 208 201 198 192 188 187 190 192 195 197 194 201 211 219 225 227
321 284 283 23 19 351 29 44 329 347 357 234 258 65 223 269 322 322 310 347 5 353 9 348 27 67 42 239 216 204 196 198 190 188 191 195 195 196 198 198 204 210 215 222
146 321 15 356 70 250 283 152 159 275 243 272 334 254 218 226 247 259 345 21 17 7 341 7 340 37 65 44 27 210 223 226 204 189 193 196 199 197 203 206 207 213 216 223
106 275 319 48 343 19 324 352 229 230 22 61 240 353 316 310 338 2 21 30 34 6 358 350 345 2 29 68 42 37 357 236 226 221 212 197 200 199 202 211 217 221 220 224
246 323 299 318 21 16 100 274 346 8 339 306 311 204 240 319 326 335 359 3 11 339 342 344 352 331 323 141 102 40 12 343 274 218 209 211 210 203 204 213 220 221 228 229
86 92 296 26 35 303 338 342 7 113 147 202 240 262 219 227 285 315 336 331 313 8 313 319 336 316 285 223 145 115 13 345 327 228 210 209 212 209 205 210 220 224 227 228
206 138 249 253 262 268 189 258 113 93 298 246 177 268 116 111 334 324 359 321 350 1 1 307 328 346 305 291 67 35 332 335 322 226 213 213 210 214 209 209 217 223 223 224
200 1 6 346 349 354 22 344 9 190 89 253 175 275 96 40 16 244 270 330 39 22 15 345 357 4 350 2 21 6 340 334 318 237 205 204 210 207 213 214 210 222 224 221
63 87 144 184 228 254 309 322 323 75 354 264 231 271 274 317 310 322 336 353 10 180 11 306 6 30 359 1 28 20 357 337 313 237 213 203 197 198 213 195 183 191 203 213
100 155 11 266 257 289 295 309 320 316 281 236 269 206 286 281 288 305 298 272 235 274 108 312 34 67 62 19 354 84 10 314 139 109 101 97 89 74 102 127 129 112 138 166
4 254 312 274 290 280 288 315 331 327 352 16 295 281 240 290 280 312 319 321 337 36 111 264 298 59 57 45 29 39 196 237 114 118 122 113 99 84 329 210 166 163 152 165
174 167 60 271 275 312 309 252 315 249 245 245 275 253 334 291 306 359 326 348 349 84 89 117 85 35 47 51 67 131 265 360 99 110 105 114 132 162 227 233 214 210 217 194
221 182 134 264 28 269 230 206 209 262 244 228 292 293 298 276 206 238 250 299 337 295 81 89 132 201 79 50 59 72 38 62 61 52 72 105 113 134 125 132 193 222 76 215
205 143 198 192 187 263 160 243 227 107 278 38 318 335 340 216 302 326 295 341 311 320 346 102 101 84 75 68 63 60 52 52 51 39 36 21 11 72 109 214 268 245 256 275
55 61 132 89 201 214 229 240 185 142 279 297 251 301 328 344 12 264 306 303 330 71 52 77 102 94 80 72 71 64 49 41 44 46 40 43 35 32 34 342 303 267 237 274
11 356 113 140 40 292 209 257 141 176 244 234 245 285 345 289 211 258 316 298 306 133 121 104 88 83 83 78 80 68 58 44 50 58 55 49 44 37 35 17 4 322 314 64
316 263 237 77 175 267 185 264 210 220 200 224 229 251 253 251 279 251 261 283 281 130 120 112 93 84 81 79 80 77 72 64 59 56 59 61 54 58 59 59 48 37 31 149
219 164 228 179 219 231 219 210 220 185 210 231 214 237 222 202 239 272 310 229 122 94 99 123 118 107 94 82 66 56 50 45 55 43 39 39 39 46 44 52 59 67 72 84
262 187 211 42 279 230 230 208 227 204 233 245 249 212 255 237 188 161 131 344 83 100 129 137 119 112 118 110 98 78 62 60 53 61 59 49 30 23 29 37 47 60 70 85
218 145 229 255 278 307 0 194 202 274 321 297 213 223 128 130 134 160 163 110 81 97 114 121 105 101 100 106 80 64 58 44 49 46 33 23 20 17 6 15 29 46 71 86
200 210 171 228 236 193 260 335 5 343 2 356 285 88 99 117 120 119 109 147 138 119 121 107 101 106 118 118 65 13 3 19 22 20 14 7 358 359 9 36 36 60 77 113
Height
745 768 780 766 764 759 764 771 773 753 733 739 738 738 723 707 703 706 708 712 709 707 694 697 698 707 721 727 726 731 738 743 749 754 758 763 766 772 775 777 780 784 787 790
761 775 748 741 748 754 759 769 767 746 729 731 739 737 718 710 708 702 702 708 699 698 697 697 699 708 712 714 720 724 729 735 741 747 751 757 763 767 771 774 776 779 782 786
771 754 731 740 745 751 754 765 760 752 736 729 735 749 735 712 704 702 697 696 699 702 702 693 698 697 703 711 712 714 720 727 735 741 749 754 759 764 767 769 771 774 778 781
753 732 737 741 742 737 755 729 733 740 755 776 738 789 746 725 716 706 702 698 703 704 695 685 687 692 694 698 701 707 715 718 726 735 740 745 747 752 755 760 766 769 773 777
758 743 744 746 738 725 744 720 728 735 753 760 752 776 754 732 732 720 707 701 704 705 700 696 701 702 700 702 704 705 705 714 717 725 732 739 744 747 752 757 760 764 768 771
743 725 730 728 719 719 714 727 745 755 773 795 761 773 776 770 758 730 719 711 706 710 709 710 700 700 686 688 696 701 707 706 713 720 728 732 738 743 747 752 756 759 762 765
750 741 726 722 738 727 740 763 794 798 802 800 758 774 782 755 742 740 735 724 721 717 713 710 699 690 681 687 696 700 702 707 709 714 721 727 732 739 742 746 751 755 758 759
775 777 743 730 745 754 750 759 793 800 807 782 755 771 766 743 737 736 729 729 721 721 715 703 698 679 680 690 699 706 715 722 716 705 713 722 729 734 740 744 747 750 753 754
773 770 735 732 732 739 756 769 747 770 770 789 775 760 747 739 735 729 727 730 725 722 718 710 703 690 686 687 699 708 713 720 721 726 730 721 726 731 736 741 745 747 750 751
755 779 750 737 731 737 751 742 770 780 789 793 783 772 771 749 742 735 730 731 727 719 714 706 697 694 689 686 692 700 710 714 720 719 720 726 728 728 732 737 740 743 745 748
752 771 770 750 761 767 761 772 766 774 785 794 804 784 747 744 741 740 736 731 725 714 715 708 699 696 692 694 677 690 704 711 714 712 715 718 724 726 725 729 734 735 739 742
746 776 787 770 750 742 749 755 771 792 788 785 788 780 731 739 738 740 736 735 725 715 714 708 702 699 701 705 675 686 692 697 707 702 707 710 713 721 720 717 721 727 731 736
747 779 801 789 771 751 755 754 757 770 782 781 790 776 745 740 741 740 736 731 727 723 721 715 706 695 689 687 676 676 687 691 693 698 694 698 702 706 708 712 716 721 728 731
750 781 788 807 787 773 774 759 753 764 788 776 775 760 745 746 743 738 733 727 722 722 722 717 711 706 699 693 686 684 679 683 689 692 694 695 701 705 710 715 716 715 718 724
762 780 771 773 767 762 762 758 752 760 757 765 754 755 748 745 742 736 731 727 722 716 711 714 709 708 710 707 711 700 698 706 706 694 693 685 702 714 712 713 718 719 719 719
764 779 771 776 764 759 760 755 754 750 750 749 752 752 744 739 735 734 730 723 718 713 709 710 709 701 706 708 704 702 707 713 706 701 701 700 695 684 705 715 715 718 718 714
771 778 784 788 772 768 777 765 761 758 756 756 760 747 743 737 737 739 735 727 722 715 713 710 708 710 708 712 713 714 715 713 712 709 708 705 702 697 694 711 718 716 712 710
766 775 786 784 778 793 759 751 753 755 751 750 750 745 742 738 738 739 733 730 725 718 712 712 713 716 712 713 716 716 715 710 708 707 712 712 706 706 709 711 717 717 713 711
746 767 781 787 790 768 762 754 756 758 757 749 748 744 737 737 732 733 733 727 724 722 717 712 713 716 714 712 713 714 713 710 706 704 704 706 712 711 703 711 719 716 711 712
751 757 771 786 784 783 758 746 743 753 769 750 748 743 740 737 745 740 732 728 722 719 718 717 718 714 714 715 714 714 716 715 708 705 706 705 702 701 705 713 715 711 705 705
770 773 776 780 784 771 747 742 742 765 766 745 742 739 733 740 737 731 728 726 722 720 721 720 717 714 715 717 719 717 717 717 713 709 712 710 710 709 706 711 710 710 706 698
777 781 781 782 785 782 739 743 751 750 742 739 739 734 733 729 727 725 728 726 724 720 719 718 715 717 719 721 723 720 721 723 719 720 718 716 719 716 715 715 714 708 704 700
772 765 774 776 770 745 739 737 733 734 736 733 733 729 727 728 728 723 726 724 719 720 721 721 721 726 726 728 726 727 726 726 723 724 723 722 722 717 717 716 716 711 707 704
754 747 761 759 741 738 731 729 729 729 731 726 724 724 723 724 724 725 726 725 723 724 725 725 723 726 730 730 731 732 730 728 725 727 727 726 723 720 719 721 718 716 711 710
752 744 748 753 742 734 728 726 725 725 725 725 722 722 721 722 724 725 728 727 728 727 728 728 727 728 731 733 732 733 733 732 729 727 726 724 721 721 722 721 719 717 715 717
743 743 751 757 737 738 735 728 729 730 729 730 726 724 723 724 725 727 729 729 729 730 731 731 731 731 734 735 734 733 732 730 728 726 725 724 723 725 724 721 720 717 718 719